Find OneWeb SL0652

NORAD ID: 55814 Int'l Des: 2023-029 Owner: ONEWEBN Country: UK Constellation: oneweb operational
LEOCIRCULARPOLARONEWEB_TYPE

当前视图

正在加载3D地球...

About OneWeb SL0652

OneWeb SL0652 (NORAD 55814) is a oneweb constellation satellite launched Mar 9, 2023 by ONEWEBN of UK. It operates in LEO, CIRCULAR, POLAR, ONEWEB_TYPE orbit with a mass of 148.00 kg.

关于 OneWeb SL0652

正在加载描述...

即将过境

Passes for default location (London). Set your location on the main map for personalized predictions.

高度历史

Loading altitude history...

两行轨道根数

1 55814U 23029U 26170.75746138 -.00000173 00000-0 -50250-3 0 9994
2 55814 87.8965 289.1982 0002092 98.5741 261.5626 13.14501811159709
Epoch: Jun 19, 2026 • Age: 9 hours

当前状态

高度 1209.3 km
速度 7.25 km/s
星下点 32.36°N, 30.07°W
发射日期 Mar 9, 2023
运行时间 3.2 years
类型 internet

技术详情

分类 Payload
质量 148.00 kg
干质量 140.00 kg
总质量 148.00 kg
长度 1.30 m
直径 1.00 m
跨度 5.00 m
形状 Trapezoid+2 pan
制造商 ONEWUS
平台类型 ARROW
阶段状态 In Orbit
所有者/国家 ONEWEBN/UK

Most Searched